Time,TemperatureF,DewpointF,PressureIn,WindDirection,WindDirectionDegrees,WindSpeedMPH,WindSpeedGustMPH,Humidity,HourlyPrecipIn,Conditions,Clouds,dailyrainin,SoftwareType,DateUTC
2013-04-19 00:03:00,49.0,30.0,30.42,NNW,341,4.0,7.0,47,0.00,,,-99.99,,2013-04-19 05:03:00,
2013-04-19 00:12:00,49.0,30.0,30.42,NNW,341,4.0,7.0,47,0.00,,,-99.99,,2013-04-19 05:12:00,
2013-04-19 00:22:00,48.0,29.0,30.42,ENE,63,2.0,9.0,48,0.00,,,-99.99,,2013-04-19 05:22:00,
2013-04-19 00:32:00,48.0,29.0,30.42,NE,54,7.0,10.0,48,0.00,,,-99.99,,2013-04-19 05:32:00,
2013-04-19 00:42:00,48.0,29.0,30.42,NE,54,7.0,10.0,48,0.00,,,-99.99,,2013-04-19 05:42:00,
2013-04-19 00:52:00,48.0,29.0,30.42,NE,54,7.0,10.0,48,0.00,,,-99.99,,2013-04-19 05:52:00,
2013-04-19 01:01:00,48.0,29.0,30.42,NE,54,7.0,10.0,48,0.00,,,-99.99,,2013-04-19 06:01:00,
2013-04-19 01:11:00,47.0,29.0,30.43,North,1,1.0,10.0,50,0.00,,,-99.99,,2013-04-19 06:11:00,
2013-04-19 01:22:00,47.0,29.0,30.43,North,1,1.0,10.0,50,0.00,,,-99.99,,2013-04-19 06:22:00,
2013-04-19 01:32:00,46.0,29.0,30.43,North,11,3.0,9.0,51,0.00,,,-99.99,,2013-04-19 06:32:00,
2013-04-19 01:42:00,46.0,29.0,30.43,North,11,3.0,9.0,51,0.00,,,-99.99,,2013-04-19 06:42:00,
2013-04-19 01:52:00,46.0,29.0,30.44,NE,43,2.0,6.0,52,0.00,,,-99.99,,2013-04-19 06:52:00,
2013-04-19 02:02:00,45.0,29.0,30.45,NE,56,2.0,7.0,53,0.00,,,-99.99,,2013-04-19 07:02:00,
2013-04-19 02:12:00,44.0,29.0,30.45,North,11,0.0,3.0,55,0.00,,,-99.99,,2013-04-19 07:12:00,
2013-04-19 02:21:00,44.0,29.0,30.45,North,11,0.0,3.0,55,0.00,,,-99.99,,2013-04-19 07:21:00,
2013-04-19 02:32:00,44.0,29.0,30.46,NNE,20,0.0,2.0,56,0.00,,,-99.99,,2013-04-19 07:32:00,
2013-04-19 02:42:00,43.0,29.0,30.46,NNE,16,1.0,2.0,57,0.00,,,-99.99,,2013-04-19 07:42:00,
2013-04-19 02:52:00,43.0,29.0,30.46,NNE,16,1.0,2.0,57,0.00,,,-99.99,,2013-04-19 07:52:00,
2013-04-19 03:02:00,43.0,29.0,30.46,North,4,2.0,2.0,58,0.00,,,-99.99,,2013-04-19 08:02:00,
2013-04-19 03:12:00,43.0,29.0,30.47,North,9,2.0,3.0,58,0.00,,,-99.99,,2013-04-19 08:12:00,
2013-04-19 03:21:00,43.0,29.0,30.47,North,9,2.0,3.0,58,0.00,,,-99.99,,2013-04-19 08:21:00,
2013-04-19 03:32:00,42.0,29.0,30.47,North,359,2.0,5.0,59,0.00,,,-99.99,,2013-04-19 08:32:00,
2013-04-19 03:42:00,42.0,29.0,30.48,NNE,32,0.0,2.0,60,0.00,,,-99.99,,2013-04-19 08:42:00,
2013-04-19 03:52:00,42.0,29.0,30.48,NNE,32,0.0,2.0,60,0.00,,,-99.99,,2013-04-19 08:52:00,
2013-04-19 04:01:00,41.0,29.0,30.48,South,172,0.0,0.0,62,0.00,,,-99.99,,2013-04-19 09:01:00,
2013-04-19 04:11:00,39.0,29.0,30.49,South,172,0.0,0.0,66,0.00,,,-99.99,,2013-04-19 09:11:00,
2013-04-19 04:21:00,39.0,29.0,30.49,South,172,0.0,0.0,66,0.00,,,-99.99,,2013-04-19 09:21:00,
2013-04-19 04:32:00,38.0,28.0,30.50,South,172,0.0,0.0,67,0.00,,,-99.99,,2013-04-19 09:32:00,
2013-04-19 04:42:00,38.0,28.0,30.50,South,172,0.0,0.0,67,0.00,,,-99.99,,2013-04-19 09:42:00,
2013-04-19 04:52:00,39.0,29.0,30.50,South,172,0.0,0.0,66,0.00,,,-99.99,,2013-04-19 09:52:00,
2013-04-19 05:02:00,39.0,28.0,30.50,South,172,0.0,0.0,65,0.00,,,-99.99,,2013-04-19 10:02:00,
2013-04-19 05:13:00,39.0,28.0,30.50,South,172,0.0,0.0,65,0.00,,,-99.99,,2013-04-19 10:13:00,
2013-04-19 05:23:00,39.0,28.0,30.50,South,172,0.0,0.0,65,0.00,,,-99.99,,2013-04-19 10:23:00,
2013-04-19 05:33:00,39.0,28.0,30.50,South,172,0.0,0.0,65,0.00,,,-99.99,,2013-04-19 10:33:00,
2013-04-19 05:42:00,39.0,28.0,30.50,South,172,0.0,0.0,65,0.00,,,-99.99,,2013-04-19 10:42:00,
2013-04-19 05:52:00,39.0,28.0,30.50,South,172,0.0,0.0,65,0.00,,,-99.99,,2013-04-19 10:52:00,
2013-04-19 06:03:00,40.0,30.0,30.50,NNW,344,0.0,0.0,66,0.00,,,-99.99,,2013-04-19 11:03:00,
2013-04-19 06:11:00,39.0,29.0,30.50,North,1,0.0,2.0,67,0.00,,,-99.99,,2013-04-19 11:11:00,
2013-04-19 06:22:00,39.0,29.0,30.50,North,1,0.0,2.0,67,0.00,,,-99.99,,2013-04-19 11:22:00,
2013-04-19 06:32:00,39.0,29.0,30.50,North,4,1.0,2.0,68,0.00,,,-99.99,,2013-04-19 11:32:00,
2013-04-19 06:42:00,39.0,29.0,30.50,North,4,1.0,2.0,68,0.00,,,-99.99,,2013-04-19 11:42:00,
2013-04-19 06:52:00,39.0,29.0,30.50,North,351,2.0,2.0,67,0.00,,,-99.99,,2013-04-19 11:52:00,
2013-04-19 07:02:00,39.0,29.0,30.50,North,351,2.0,2.0,67,0.00,,,-99.99,,2013-04-19 12:02:00,
2013-04-19 07:12:00,39.0,29.0,30.50,North,351,2.0,2.0,67,0.00,,,-99.99,,2013-04-19 12:12:00,
2013-04-19 07:22:00,39.0,29.0,30.50,North,351,2.0,2.0,67,0.00,,,-99.99,,2013-04-19 12:22:00,
2013-04-19 07:32:00,39.0,29.0,30.51,North,354,2.0,2.0,67,0.00,,,-99.99,,2013-04-19 12:32:00,
2013-04-19 07:42:00,39.0,29.0,30.51,North,354,2.0,2.0,67,0.00,,,-99.99,,2013-04-19 12:42:00,
2013-04-19 07:53:00,38.0,28.0,30.51,North,354,1.0,3.0,68,0.00,,,-99.99,,2013-04-19 12:53:00,
2013-04-19 08:01:00,40.0,29.0,30.52,North,349,1.0,2.0,65,0.00,,,-99.99,,2013-04-19 13:01:00,
2013-04-19 08:11:00,40.0,29.0,30.52,NNW,340,1.0,2.0,64,0.00,,,-99.99,,2013-04-19 13:11:00,
2013-04-19 08:21:00,40.0,29.0,30.52,NNW,340,1.0,2.0,64,0.00,,,-99.99,,2013-04-19 13:21:00,
2013-04-19 08:32:00,43.0,31.0,30.53,NNW,341,0.0,2.0,63,0.00,,,-99.99,,2013-04-19 13:32:00,
2013-04-19 08:42:00,44.0,31.0,30.53,West,280,1.0,2.0,59,0.00,,,-99.99,,2013-04-19 13:42:00,
2013-04-19 08:52:00,44.0,31.0,30.53,West,280,1.0,2.0,59,0.00,,,-99.99,,2013-04-19 13:52:00,
2013-04-19 09:01:00,46.0,28.0,30.54,NW,316,4.0,7.0,50,0.00,,,-99.99,,2013-04-19 14:01:00,
2013-04-19 09:11:00,48.0,26.0,30.54,NNW,332,7.0,11.0,42,0.00,,,-99.99,,2013-04-19 14:11:00,
2013-04-19 09:22:00,48.0,26.0,30.54,NNW,332,7.0,11.0,42,0.00,,,-99.99,,2013-04-19 14:22:00,
2013-04-19 09:32:00,49.0,25.0,30.54,NW,316,5.0,13.0,38,0.00,,,-99.99,,2013-04-19 14:32:00,
2013-04-19 09:42:00,49.0,25.0,30.54,NW,316,5.0,13.0,38,0.00,,,-99.99,,2013-04-19 14:42:00,
2013-04-19 09:52:00,49.0,23.0,30.55,North,355,8.0,16.0,35,0.00,,,-99.99,,2013-04-19 14:52:00,
2013-04-19 10:01:00,50.0,21.0,30.54,North,353,6.0,15.0,32,0.00,,,-99.99,,2013-04-19 15:01:00,
2013-04-19 10:12:00,50.0,21.0,30.54,North,353,6.0,15.0,32,0.00,,,-99.99,,2013-04-19 15:12:00,
2013-04-19 10:21:00,50.0,21.0,30.54,North,353,6.0,15.0,32,0.00,,,-99.99,,2013-04-19 15:21:00,
2013-04-19 10:33:00,52.0,20.0,30.55,NNW,336,9.0,17.0,28,0.00,,,-99.99,,2013-04-19 15:33:00,
2013-04-19 10:43:00,52.0,20.0,30.55,NNW,336,9.0,17.0,28,0.00,,,-99.99,,2013-04-19 15:43:00,
2013-04-19 10:52:00,52.0,20.0,30.55,NNW,336,9.0,17.0,28,0.00,,,-99.99,,2013-04-19 15:52:00,
2013-04-19 11:03:00,53.0,19.0,30.54,NNE,12,6.0,15.0,26,0.00,,,-99.99,,2013-04-19 16:03:00,
2013-04-19 11:12:00,53.0,17.0,30.54,North,351,12.0,18.0,24,0.00,,,-99.99,,2013-04-19 16:12:00,
2013-04-19 11:23:00,53.0,17.0,30.54,North,351,12.0,18.0,24,0.00,,,-99.99,,2013-04-19 16:23:00,
2013-04-19 11:32:00,53.0,17.0,30.54,North,351,12.0,18.0,24,0.00,,,-99.99,,2013-04-19 16:32:00,
2013-04-19 11:42:00,54.0,19.0,30.54,NW,316,7.0,13.0,25,0.00,,,-99.99,,2013-04-19 16:42:00,
2013-04-19 11:52:00,54.0,19.0,30.54,NW,316,7.0,13.0,25,0.00,,,-99.99,,2013-04-19 16:52:00,
2013-04-19 12:02:00,56.0,21.0,30.54,North,349,6.0,15.0,25,0.00,,,-99.99,,2013-04-19 17:02:00,
2013-04-19 12:12:00,56.0,21.0,30.54,North,349,6.0,15.0,25,0.00,,,-99.99,,2013-04-19 17:12:00,
2013-04-19 12:21:00,56.0,22.0,30.53,NE,51,5.0,16.0,26,0.00,,,-99.99,,2013-04-19 17:21:00,
2013-04-19 12:33:00,56.0,22.0,30.53,NE,51,5.0,16.0,26,0.00,,,-99.99,,2013-04-19 17:33:00,
2013-04-19 12:42:00,56.0,22.0,30.53,NE,51,5.0,16.0,26,0.00,,,-99.99,,2013-04-19 17:42:00,
2013-04-19 12:52:00,57.0,22.0,30.52,NNE,19,9.0,15.0,25,0.00,,,-99.99,,2013-04-19 17:52:00,
2013-04-19 13:02:00,57.0,22.0,30.51,NW,316,6.0,14.0,25,0.00,,,-99.99,,2013-04-19 18:02:00,
2013-04-19 13:13:00,57.0,22.0,30.51,NW,316,6.0,14.0,25,0.00,,,-99.99,,2013-04-19 18:13:00,
2013-04-19 13:22:00,58.0,21.0,30.50,NNW,337,9.0,15.0,24,0.00,,,-99.99,,2013-04-19 18:22:00,
2013-04-19 13:33:00,60.0,22.0,30.49,NE,54,5.0,16.0,23,0.00,,,-99.99,,2013-04-19 18:33:00,
2013-04-19 13:42:00,60.0,22.0,30.49,NE,54,5.0,16.0,23,0.00,,,-99.99,,2013-04-19 18:42:00,
2013-04-19 13:52:00,60.0,22.0,30.48,North,9,11.0,14.0,23,0.00,,,-99.99,,2013-04-19 18:52:00,
2013-04-19 14:01:00,60.0,21.0,30.47,WNW,290,4.0,12.0,22,0.00,,,-99.99,,2013-04-19 19:01:00,
2013-04-19 14:11:00,60.0,21.0,30.47,WNW,290,4.0,12.0,22,0.00,,,-99.99,,2013-04-19 19:11:00,
2013-04-19 14:21:00,60.0,21.0,30.47,WNW,290,4.0,12.0,22,0.00,,,-99.99,,2013-04-19 19:21:00,
2013-04-19 14:32:00,61.0,23.0,30.45,ENE,75,3.0,12.0,23,0.00,,,-99.99,,2013-04-19 19:32:00,
2013-04-19 14:41:00,61.0,23.0,30.45,ENE,75,3.0,12.0,23,0.00,,,-99.99,,2013-04-19 19:41:00,
2013-04-19 14:52:00,62.0,24.0,30.43,NNE,20,8.0,11.0,23,0.00,,,-99.99,,2013-04-19 19:52:00,
2013-04-19 15:02:00,63.0,25.0,30.42,NNW,330,8.0,16.0,23,0.00,,,-99.99,,2013-04-19 20:02:00,
2013-04-19 15:11:00,63.0,22.0,30.41,ESE,108,2.0,12.0,21,0.00,,,-99.99,,2013-04-19 20:11:00,
2013-04-19 15:22:00,63.0,22.0,30.41,ESE,108,2.0,12.0,21,0.00,,,-99.99,,2013-04-19 20:22:00,
2013-04-19 15:32:00,63.0,22.0,30.40,NNE,30,2.0,16.0,21,0.00,,,-99.99,,2013-04-19 20:32:00,
2013-04-19 15:42:00,63.0,22.0,30.40,NNE,30,2.0,16.0,21,0.00,,,-99.99,,2013-04-19 20:42:00,
2013-04-19 15:52:00,63.0,22.0,30.40,NNE,30,2.0,16.0,21,0.00,,,-99.99,,2013-04-19 20:52:00,
2013-04-19 16:01:00,63.0,22.0,30.40,NNE,30,2.0,16.0,21,0.00,,,-99.99,,2013-04-19 21:01:00,
2013-04-19 16:11:00,64.0,23.0,30.37,NNE,15,7.0,8.0,21,0.00,,,-99.99,,2013-04-19 21:11:00,
2013-04-19 16:21:00,64.0,23.0,30.37,NNE,15,7.0,8.0,21,0.00,,,-99.99,,2013-04-19 21:21:00,
2013-04-19 16:32:00,64.0,23.0,30.35,ESE,103,4.0,10.0,21,0.00,,,-99.99,,2013-04-19 21:32:00,
2013-04-19 16:42:00,64.0,23.0,30.35,ESE,103,4.0,10.0,21,0.00,,,-99.99,,2013-04-19 21:42:00,
2013-04-19 16:52:00,64.0,23.0,30.35,ESE,103,4.0,10.0,21,0.00,,,-99.99,,2013-04-19 21:52:00,
2013-04-19 17:02:00,65.0,25.0,30.32,NNW,330,5.0,9.0,22,0.00,,,-99.99,,2013-04-19 22:02:00,
2013-04-19 17:12:00,65.0,23.0,30.32,NNW,347,8.0,11.0,20,0.00,,,-99.99,,2013-04-19 22:12:00,
2013-04-19 17:22:00,65.0,23.0,30.32,NNW,347,8.0,11.0,20,0.00,,,-99.99,,2013-04-19 22:22:00,
2013-04-19 17:33:00,65.0,23.0,30.30,NNW,338,2.0,6.0,20,0.00,,,-99.99,,2013-04-19 22:33:00,
2013-04-19 17:42:00,65.0,22.0,30.30,NW,310,3.0,13.0,19,0.00,,,-99.99,,2013-04-19 22:42:00,
2013-04-19 17:52:00,65.0,22.0,30.30,NW,310,3.0,13.0,19,0.00,,,-99.99,,2013-04-19 22:52:00,
2013-04-19 18:02:00,65.0,22.0,30.30,NW,310,3.0,13.0,19,0.00,,,-99.99,,2013-04-19 23:02:00,
2013-04-19 18:11:00,65.0,20.0,30.28,West,269,2.0,10.0,18,0.00,,,-99.99,,2013-04-19 23:11:00,
2013-04-19 18:22:00,65.0,20.0,30.28,West,269,2.0,10.0,18,0.00,,,-99.99,,2013-04-19 23:22:00,
2013-04-19 18:32:00,65.0,20.0,30.28,West,269,2.0,10.0,18,0.00,,,-99.99,,2013-04-19 23:32:00,
2013-04-19 18:42:00,65.0,20.0,30.28,West,269,2.0,10.0,18,0.00,,,-99.99,,2013-04-19 23:42:00,
2013-04-19 18:52:00,66.0,23.0,30.27,WNW,285,1.0,8.0,19,0.00,,,-99.99,,2013-04-19 23:52:00,
2013-04-19 19:02:00,65.0,22.0,30.26,NW,318,1.0,8.0,19,0.00,,,-99.99,,2013-04-20 00:02:00,
2013-04-19 19:12:00,65.0,22.0,30.26,NW,318,1.0,8.0,19,0.00,,,-99.99,,2013-04-20 00:12:00,
2013-04-19 19:21:00,65.0,22.0,30.26,NW,318,1.0,8.0,19,0.00,,,-99.99,,2013-04-20 00:21:00,
2013-04-19 19:32:00,65.0,22.0,30.25,NE,51,0.0,6.0,19,0.00,,,-99.99,,2013-04-20 00:32:00,
2013-04-19 19:41:00,65.0,22.0,30.25,NE,51,0.0,6.0,19,0.00,,,-99.99,,2013-04-20 00:41:00,
2013-04-19 19:51:00,64.0,22.0,30.24,North,355,2.0,4.0,20,0.00,,,-99.99,,2013-04-20 00:51:00,
2013-04-19 20:01:00,63.0,20.0,30.24,NNE,25,1.0,2.0,19,0.00,,,-99.99,,2013-04-20 01:01:00,
2013-04-19 20:11:00,63.0,20.0,30.24,NNE,25,1.0,2.0,19,0.00,,,-99.99,,2013-04-20 01:11:00,
2013-04-19 20:21:00,61.0,22.0,30.24,NNE,25,1.0,1.0,22,0.00,,,-99.99,,2013-04-20 01:21:00,
2013-04-19 20:32:00,61.0,22.0,30.24,NNE,25,1.0,1.0,22,0.00,,,-99.99,,2013-04-20 01:32:00,
2013-04-19 20:42:00,61.0,22.0,30.24,NNE,25,1.0,1.0,22,0.00,,,-99.99,,2013-04-20 01:42:00,
2013-04-19 20:52:00,61.0,22.0,30.24,NNE,25,1.0,1.0,22,0.00,,,-99.99,,2013-04-20 01:52:00,
2013-04-19 21:01:00,61.0,22.0,30.24,NNE,25,1.0,1.0,22,0.00,,,-99.99,,2013-04-20 02:01:00,